• In Hungary
  • List of Countries
  • For 7 days
  • Water Temperature
  • Satellite Maps
  • Weather Map
  • News
  • Weather Widgets
  • user-avatar
    Login

    Hourly Weather Bystra

    Today, 18 July, Wednesday

    Time Temperature Precipitation Wind Pressure Humidity
    00:00 +16°C° 0.4 mm 3 mps 704 mmHg 96%
    01:00 +16°C° 0 mm 2 mps 703 mmHg 97%
    02:00 +16°C° 0.7 mm 2 mps 703 mmHg 97%
    03:00 +16°C° 0.7 mm 3 mps 703 mmHg 97%
    04:00 +16°C° 0.7 mm 3 mps 703 mmHg 97%
    05:00 +16°C° 1.1 mm 3 mps 703 mmHg 96%
    06:00 +16°C° 1.1 mm 3 mps 703 mmHg 96%
    07:00 +16°C° 1.1 mm 3 mps 703 mmHg 96%
    08:00 +16°C° 1.5 mm 3 mps 703 mmHg 96%
    09:00 +16°C° 1.5 mm 3 mps 703 mmHg 96%
    10:00 +16°C° 1.5 mm 3 mps 704 mmHg 95%
    11:00 +17°C° 1.1 mm 3 mps 704 mmHg 95%
    12:00 +17°C° 1.1 mm 3 mps 704 mmHg 94%
    13:00 +17°C° 1.1 mm 3 mps 704 mmHg 94%
    14:00 +17°C° 1.3 mm 4 mps 704 mmHg 94%
    15:00 +17°C° 1.3 mm 4 mps 704 mmHg 94%
    16:00 +17°C° 1.3 mm 4 mps 705 mmHg 95%
    17:00 +17°C° 1.3 mm 4 mps 705 mmHg 95%
    18:00 +17°C° 1.3 mm 4 mps 705 mmHg 95%
    19:00 +17°C° 1.3 mm 4 mps 705 mmHg 95%
    20:00 +17°C° 0.7 mm 4 mps 705 mmHg 96%
    21:00 +17°C° 0.7 mm 4 mps 706 mmHg 96%
    22:00 +17°C° 0.7 mm 4 mps 706 mmHg 96%
    23:00 +17°C° 0.4 mm 4 mps 706 mmHg 96%

    Tomorrow, 19 July, Thursday

    Time Temperature Precipitation Wind Pressure Humidity
    00:00 +17°C° 0.4 mm 4 mps 706 mmHg 96%
    01:00 +17°C° 0.4 mm 3 mps 706 mmHg 96%
    02:00 +17°C° 0.5 mm 3 mps 706 mmHg 96%
    03:00 +17°C° 0.5 mm 3 mps 706 mmHg 96%
    04:00 +16°C° 0.5 mm 3 mps 706 mmHg 96%
    05:00 +16°C° 0.5 mm 3 mps 707 mmHg 96%
    06:00 +16°C° 0.5 mm 3 mps 707 mmHg 96%
    07:00 +16°C° 0.5 mm 3 mps 707 mmHg 96%
    08:00 +17°C° 0.4 mm 3 mps 707 mmHg 96%
    09:00 +17°C° 0.4 mm 3 mps 708 mmHg 95%
    10:00 +17°C° 0.4 mm 3 mps 708 mmHg 95%
    11:00 +17°C° 0.4 mm 3 mps 708 mmHg 94%
    12:00 +17°C° 0.4 mm 3 mps 708 mmHg 94%
    13:00 +17°C° 0.4 mm 3 mps 708 mmHg 93%
    14:00 +17°C° 0.1 mm 3 mps 708 mmHg 93%
    15:00 +17°C° 0.1 mm 3 mps 708 mmHg 92%
    16:00 +17°C° 0.1 mm 3 mps 708 mmHg 92%
    17:00 +17°C° 0.1 mm 3 mps 708 mmHg 93%
    18:00 +17°C° 0.1 mm 3 mps 708 mmHg 94%
    19:00 +17°C° 0.1 mm 2 mps 708 mmHg 95%
    20:00 +17°C° 0.2 mm 2 mps 708 mmHg 95%
    21:00 +17°C° 0.2 mm 2 mps 708 mmHg 96%
    22:00 +16°C° 0.2 mm 2 mps 709 mmHg 97%
    23:00 +16°C° 0.3 mm 2 mps 709 mmHg 97%

    Day after tomorrow, 20 July, Friday

    Time Temperature Precipitation Wind Pressure Humidity
    00:00 +16°C° 0.3 mm 2 mps 708 mmHg 97%
    01:00 +16°C° 0.3 mm 2 mps 708 mmHg 97%
    02:00 +16°C° 0.1 mm 2 mps 708 mmHg 97%
    03:00 +16°C° 0.1 mm 2 mps 708 mmHg 97%
    04:00 +16°C° 0.1 mm 2 mps 708 mmHg 97%
    05:00 +16°C° 0.1 mm 2 mps 708 mmHg 97%
    06:00 +16°C° 0.1 mm 2 mps 709 mmHg 96%
    07:00 +16°C° 0.1 mm 2 mps 709 mmHg 95%
    08:00 +17°C° 0.1 mm 2 mps 709 mmHg 93%
    09:00 +17°C° 0.1 mm 2 mps 709 mmHg 91%
    10:00 +18°C° 0.1 mm 2 mps 709 mmHg 89%
    11:00 +19°C° 0 mm 2 mps 709 mmHg 84%
    12:00 +20°C° 0 mm 2 mps 709 mmHg 79%
    13:00 +21°C° 0 mm 2 mps 709 mmHg 73%
    14:00 +23°C° 0 mm 2 mps 709 mmHg 70%
    15:00 +24°C° 0 mm 2 mps 709 mmHg 66%
    16:00 +24°C° 0 mm 2 mps 709 mmHg 63%
    17:00 +23°C° 0.1 mm 2 mps 708 mmHg 70%
    18:00 +21°C° 0.1 mm 2 mps 708 mmHg 77%
    19:00 +20°C° 0.1 mm 1 mps 708 mmHg 84%
    20:00 +19°C° 0 mm 1 mps 708 mmHg 86%
    21:00 +18°C° 0 mm 1 mps 708 mmHg 89%
    22:00 +15°C° 0 mm 0 mps 708 mmHg 92%
    23:00 +15°C° 0 mm 0 mps 708 mmHg 92%

    21 July, Saturday

    Time Temperature Precipitation Wind Pressure Humidity
    00:00 +14°C° 0 mm 0 mps 708 mmHg 93%
    01:00 +14°C° 0 mm 0 mps 707 mmHg 93%
    02:00 +14°C° 0 mm 0 mps 707 mmHg 94%
    03:00 +13°C° 0 mm 0 mps 707 mmHg 94%
    04:00 +13°C° 0 mm 0 mps 707 mmHg 94%
    05:00 +15°C° 0 mm 0 mps 707 mmHg 90%
    06:00 +16°C° 0 mm 0 mps 707 mmHg 86%
    07:00 +18°C° 0 mm 0 mps 707 mmHg 82%
    08:00 +20°C° 0 mm 0 mps 708 mmHg 75%
    09:00 +22°C° 0 mm 0 mps 708 mmHg 68%
    10:00 +23°C° 0 mm 0 mps 708 mmHg 61%
    11:00 +26°C° 0.1 mm 1 mps 708 mmHg 59%
    12:00 +26°C° 0.1 mm 1 mps 708 mmHg 56%
    13:00 +27°C° 0.1 mm 1 mps 707 mmHg 54%
    14:00 +26°C° 0.5 mm 1 mps 707 mmHg 57%
    15:00 +26°C° 0.5 mm 1 mps 707 mmHg 59%
    16:00 +26°C° 0.5 mm 1 mps 707 mmHg 62%
    17:00 +24°C° 0.3 mm 1 mps 707 mmHg 67%
    18:00 +23°C° 0.3 mm 1 mps 706 mmHg 71%
    19:00 +22°C° 0.3 mm 1 mps 706 mmHg 76%
    20:00 +21°C° 0.1 mm 1 mps 706 mmHg 77%
    21:00 +20°C° 0.1 mm 1 mps 706 mmHg 79%
    22:00 +18°C° 0.1 mm 2 mps 706 mmHg 81%
    23:00 +18°C° 0.3 mm 1 mps 706 mmHg 83%

    22 July, Sunday

    Time Temperature Precipitation Wind Pressure Humidity
    00:00 +18°C° 0.3 mm 1 mps 706 mmHg 84%
    01:00 +16°C° 0.3 mm 1 mps 706 mmHg 86%
    02:00 +16°C° 0.1 mm 1 mps 705 mmHg 87%
    03:00 +16°C° 0.1 mm 1 mps 705 mmHg 88%
    04:00 +15°C° 0.1 mm 1 mps 705 mmHg 89%
    05:00 +18°C° 0 mm 1 mps 705 mmHg 87%
    06:00 +19°C° 0 mm 1 mps 705 mmHg 85%
    07:00 +19°C° 0 mm 2 mps 706 mmHg 83%
    08:00 +20°C° 0.2 mm 2 mps 706 mmHg 79%
    09:00 +21°C° 0.2 mm 2 mps 706 mmHg 76%
    10:00 +22°C° 0.2 mm 3 mps 706 mmHg 72%
    11:00 +24°C° 0.5 mm 3 mps 706 mmHg 71%
    12:00 +24°C° 0.5 mm 3 mps 706 mmHg 69%
    13:00 +24°C° 0.5 mm 3 mps 706 mmHg 68%
    14:00 +24°C° 0.7 mm 3 mps 706 mmHg 69%
    15:00 +24°C° 0.7 mm 2 mps 705 mmHg 71%
    16:00 +23°C° 0.7 mm 2 mps 705 mmHg 72%
    17:00 +21°C° 0.2 mm 2 mps 705 mmHg 75%
    18:00 +20°C° 0.2 mm 2 mps 706 mmHg 77%
    19:00 +20°C° 0.2 mm 1 mps 706 mmHg 79%
    20:00 +19°C° 0 mm 2 mps 706 mmHg 80%
    21:00 +18°C° 0 mm 2 mps 706 mmHg 81%
    22:00 +18°C° 0 mm 2 mps 706 mmHg 81%
    23:00 +17°C° 0 mm 2 mps 706 mmHg 83%

    23 July, Monday

    Time Temperature Precipitation Wind Pressure Humidity
    00:00 +17°C° 0 mm 2 mps 706 mmHg 84%
    01:00 +16°C° 0 mm 2 mps 706 mmHg 85%
    02:00 +16°C° 0 mm 2 mps 707 mmHg 86%
    03:00 +16°C° 0 mm 2 mps 707 mmHg 88%
    04:00 +15°C° 0 mm 2 mps 707 mmHg 89%
    05:00 +16°C° 0 mm 2 mps 707 mmHg 87%
    06:00 +17°C° 0 mm 2 mps 708 mmHg 85%
    07:00 +18°C° 0 mm 2 mps 708 mmHg 84%
    08:00 +19°C° 0 mm 3 mps 708 mmHg 77%
    09:00 +20°C° 0 mm 4 mps 709 mmHg 70%
    10:00 +22°C° 0 mm 4 mps 709 mmHg 63%
    11:00 +22°C° 0 mm 4 mps 709 mmHg 59%
    12:00 +23°C° 0 mm 4 mps 709 mmHg 55%
    13:00 +25°C° 0 mm 5 mps 709 mmHg 51%
    14:00 +25°C° 0 mm 4 mps 709 mmHg 52%
    15:00 +23°C° 0 mm 4 mps 709 mmHg 54%
    16:00 +23°C° 0 mm 4 mps 709 mmHg 56%
    17:00 +22°C° 0 mm 4 mps 709 mmHg 62%
    18:00 +21°C° 0 mm 3 mps 709 mmHg 67%
    19:00 +19°C° 0 mm 3 mps 709 mmHg 73%
    20:00 +18°C° 0 mm 2 mps 709 mmHg 77%
    21:00 +17°C° 0 mm 2 mps 709 mmHg 80%
    22:00 +15°C° 0 mm 1 mps 709 mmHg 84%
    23:00 +15°C° 0 mm 1 mps 709 mmHg 86%
    Show more